Flag for Germany Weather past 2 weeks in Leutkirch im Allgäu, Baden-Württemberg, Germany

Now
62 °F

Overcast.


Feels Like: 62 °F
Forecast: 53 / 62 °F
Wind: 2 mph from Southwest

Location: Kempten

Current Time: Jul 28, 2015 at 9:52:25 PM

Latest Report: Jul 28, 2015 at 9:00 PM


Visibility: 25 mi

Pressure: 29.84 "Hg (27.62 "Hg at 656m altitude)

Humidity: 67%

Dew point: 51 °F

Location of Leutkirch im AllgäuLocation

Historic Weather in Leutkirch im Allgäu — Graph

°F

Leutkirch im Allgäu temperature yesterday

Maximum temperature yesterday: 71 °F (at 2:00 PM)
Minimum temperature yesterday: 55 °F (at 3:00 AM)
Average temperature yesterday: 63 °F

Past Weeks' High & Low Weather Summary

 TemperatureHumidityPressure
High90 °F (Jul 17, 3:00 PM)96% (Jul 24, 5:00 AM)30.16 "Hg (Jul 24, 5:00 AM)
Low47 °F (Jul 26, 7:00 AM)24% (Jul 17, 3:00 PM)29.64 "Hg (Jul 24, 6:00 PM)
Average69 °F65%29.94 "Hg
* Reported Jul 13 8:00 PM — Jul 28 8:00 PM, Leutkirch im Allgäu, Weather by CustomWeather, © 2015

Note: Actual official high and low records may vary slightly from our data, if they occured in-between our weather recording intervals... More about our weather records

Advertising

Leutkirch im Allgäu weather history for previous 24 hours

 ConditionsComfort  
Time TempWeatherWind HumidityBarometerVisibility
8:00 PM
Tue, Jul 28
62 °FOvercast.3 mph65%29.82 "Hg28 mi
7:00 PM63 °FOvercast.3 mph62%29.83 "Hg31 mi
6:00 PM63 °FOvercast.5 mph61%29.81 "Hg25 mi
5:00 PM64 °FOvercast.3 mph61%29.82 "Hg22 mi
4:00 PM64 °FOvercast.3 mph59%29.82 "Hg19 mi
3:00 PM63 °FOvercast.5 mph63%29.83 "Hg22 mi
2:00 PM63 °FOvercast.5 mph61%29.83 "Hg18 mi
1:00 PM62 °FOvercast.3 mph61%29.85 "Hg25 mi
12:00 PM61 °FOvercast.5 mph63%29.87 "Hg25 mi
10:00 AM62 °FOvercast.3 mph65%29.85 "Hg28 mi
9:00 AM61 °FOvercast.5 mph65%29.85 "Hg34 mi
8:00 AM62 °FOvercast.3 mph64%29.84 "Hg34 mi
7:00 AM62 °FOvercast.3 mph65%29.83 "Hg31 mi
6:00 AM62 °FOvercast.5 mph61%29.82 "Hg37 mi
5:00 AM62 °FOvercast.2 mph63%29.82 "Hg40 mi
4:00 AM61 °FOvercast.2 mph65%29.83 "Hg37 mi
3:00 AM63 °FOvercast.3 mph58%29.83 "Hg40 mi
2:00 AM62 °FOvercast.3 mph63%29.84 "Hg40 mi
1:00 AM63 °FOvercast.2 mph62%29.84 "Hg37 mi
10:00 PM
Mon, Jul 27
64 °FOvercast.3 mph58%29.83 "Hg40 mi
9:00 PM65 °FPassing clouds.2 mph58%29.80 "Hg40 mi
Weather by CustomWeather, © 2015

See weather overviewHow to use our weather pages